Weather History for Cleveland Burke, OH

Change the Weather History Date:

Tuesday, March 5, 2013

  Actual Average Record
Temperature  
Mean Temperature 26 °F -  
Max Temperature 30 °F 38 °F 79 °F (2004)
Min Temperature 21 °F 26 °F 16 °F (2002)
Degree Days  
Heating Degree Days 40    
Moisture  
Dew Point 24 °F    
Average Humidity 84    
Maximum Humidity 89    
Minimum Humidity 71    
Precipitation  
Precipitation 0.00 in - - ()
Sea Level Pressure  
Sea Level Pressure 29.94 in    
Wind  
Wind Speed 9 mph (NE)    
Max Wind Speed 21 mph    
Max Gust Speed 28 mph    
Visibility 10 miles    
Events      
Averages and records for this station are not official NWS values.
T = Trace of Precipitation, MM = Missing Value Source: NWS Daily Summary

Daily Weather History Graph

Daily Weather History Graph

Search for Another Location

Airport:

Trip Planner

Search our weather history database for the weather conditions in past years. The results will help you decide how hot, cold, wet, or windy it might be!

Date:

Astronomy

Mar. 05, 2013 Rise Set
Actual Time 6:54 AM EST 6:22 PM EST
Civil Twilight 6:26 AM EST 6:50 PM EST
Nautical Twilight 5:54 AM EST 7:22 PM EST
Astronomical Twilight 5:22 AM EST 7:54 PM EST
Moon 2:08 AM EST (3/5) 11:56 AM EST (3/5)
Length of Visible Light 12h 23m
Length of Day
11h 27m
Last Quarter, 41% of the Moon is Illuminated
Mar 5
Last Quarter
Mar 11
New
Mar 19
First Quarter
Mar 27
Full
Apr 3
Last Quarter

Hourly Weather History & Observations

Time (EST) Temp. Windchill Dew Point Humidity Pressure Visibility Wind Dir Wind Speed Gust Speed Precip Events Conditions
12:53 AM 26.1 °F - 18.0 °F 71% 30.14 in 10.0 mi Calm Calm - N/A   Clear
2:53 AM 23.0 °F 14.7 °F 19.9 °F 88% 30.13 in 9.0 mi ENE 6.9 mph - N/A   Clear
3:53 AM 23.0 °F 15.8 °F 19.0 °F 85% 30.11 in 10.0 mi ENE 5.8 mph - N/A   Clear
4:53 AM 21.9 °F 14.5 °F 19.0 °F 89% 30.10 in 10.0 mi East 5.8 mph - N/A   Clear
5:53 AM 21.9 °F 14.5 °F 19.0 °F 89% 30.10 in 10.0 mi ENE 5.8 mph - N/A   Clear
6:53 AM 21.9 °F 15.7 °F 19.0 °F 89% 30.09 in 10.0 mi ENE 4.6 mph - N/A   Clear
8:53 AM 26.1 °F 18.4 °F 21.0 °F 81% 30.07 in 10.0 mi NNE 6.9 mph - N/A   Clear
9:53 AM 27.0 °F 17.3 °F 21.9 °F 81% 30.06 in 10.0 mi NNE 10.4 mph - N/A   Clear
10:53 AM 28.9 °F 19.8 °F 23.0 °F 78% 30.04 in 10.0 mi NNE 10.4 mph - N/A   Clear
11:53 AM 30.0 °F 20.0 °F 24.1 °F 79% 30.02 in 10.0 mi NNE 12.7 mph - N/A   Clear
12:53 PM 30.0 °F 19.1 °F 25.0 °F 82% 29.99 in 10.0 mi NE 15.0 mph - N/A   Clear
1:53 PM 30.9 °F 19.4 °F 26.1 °F 82% 29.94 in 10.0 mi NE 17.3 mph - N/A   Clear
2:53 PM 30.9 °F 19.1 °F 27.0 °F 85% 29.90 in 10.0 mi NE 18.4 mph 27.6 mph N/A   Clear
3:53 PM 30.9 °F 18.4 °F 27.0 °F 85% 29.87 in 10.0 mi NE 20.7 mph 27.6 mph N/A   Clear
4:53 PM 30.9 °F 18.7 °F 27.0 °F 85% 29.84 in 10.0 mi NE 19.6 mph 27.6 mph N/A   Clear
5:53 PM 30.0 °F 18.3 °F 27.0 °F 88% 29.82 in 10.0 mi NE 17.3 mph - N/A   Clear
6:53 PM 30.0 °F 18.7 °F 27.0 °F 88% 29.81 in 10.0 mi NE 16.1 mph - N/A   Clear
7:53 PM 28.9 °F 18.2 °F 26.1 °F 89% 29.79 in 10.0 mi NE 13.8 mph - N/A   Clear
8:53 PM 30.0 °F 19.5 °F 25.0 °F 82% 29.76 in 10.0 mi NE 13.8 mph - N/A   Clear
9:53 PM 30.0 °F 19.1 °F 25.0 °F 82% 29.74 in 10.0 mi NE 15.0 mph - N/A   Clear
10:53 PM 30.9 °F 21.7 °F 26.1 °F 82% 29.73 in 10.0 mi NE 11.5 mph - N/A   Clear
11:53 PM 30.9 °F 20.7 °F 26.1 °F 82% 29.73 in 10.0 mi NE 13.8 mph - N/A   Clear